CW7079 Weather Reports


Display with metric or nautical units.
time (UTC)temp
F
wind
direction
speed
MPH
gust
MPH
rain 1hr
in
rain 24hr
in
rain mn
in
humidity
%
barometer
mb
20260508032208 41 126 0.0 0.0 0.00 0.00 0.00 91 1017.9
20260508025040 42 126 0.0 0.0 0.00 0.00 0.00 91 1017.8
20260508022014 41 127 0.0 0.0 0.00 0.00 0.00 91 1017.6
20260508015121 40 127 0.0 0.0 0.00 0.00 0.00 90 1017.4
20260508012002 42 126 0.0 0.0 0.00 0.00 0.00 90 1017.5
20260508005125 42 127 0.0 0.0 0.00 0.00 0.00 89 1017.7
20260508002137 43 127 0.0 0.0 0.00 0.00 0.00 88 1017.9
20260507235118 44 126 0.0 0.0 0.00 0.00 0.00 88 1017.9
20260507232052 44 127 0.0 0.0 0.00 0.00 0.00 86 1018.1
20260507225142 45 127 0.0 0.0 0.00 0.00 0.00 86 1018.2
20260507222257 46 127 0.0 1.0 0.00 0.00 0.00 85 1018.2
20260507215159 47 126 1.0 3.0 0.00 0.00 0.00 84 1018.3
20260507212054 48 127 2.0 4.0 0.00 0.00 0.00 84 1017.9
20260507205109 47 128 1.0 2.0 0.00 0.00 0.00 82 1018.0
20260507202013 49 128 1.0 2.0 0.00 0.00 0.00 80 1017.7
20260507191813 53 128 4.0 10.0 0.00 0.00 0.00 75 1017.1
20260507184752 54 125 4.0 10.0 0.00 0.00 0.00 72 1016.9
20260507181657 56 123 6.0 12.0 0.00 0.00 0.00 69 1016.8
20260507174543 57 135 6.0 14.0 0.00 0.00 0.00 67 1016.5
20260507171544 58 118 6.0 12.0 0.00 0.00 0.00 67 1016.5
20260507164708 58 129 5.0 11.0 0.00 0.00 0.00 63 1016.6
20260507154603 59 128 2.0 5.0 0.00 0.00 0.00 64 1016.8
20260507144434 55 128 0.0 0.0 0.00 0.00 0.00 69 1016.9
20260507141448 55 128 0.0 0.0 0.00 0.00 0.00 70 1017.3
20260507134431 56 128 0.0 3.0 0.00 0.00 0.00 67 1017.2
20260507121149 58 134 2.0 7.0 0.00 0.00 0.00 60 1017.3
20260507111056 56 111 3.0 9.0 0.00 0.00 0.00 66 1017.4
20260507104036 56 105 0.0 4.0 0.00 0.00 0.00 66 1017.5
20260507101149 57 96 1.0 6.0 0.00 0.00 0.00 65 1017.6
20260507094027 57 121 1.0 7.0 0.00 0.00 0.00 67 1017.7
20260507091107 56 111 1.0 7.0 0.00 0.00 0.00 70 1017.5
20260507084030 53 111 2.0 2.0 0.00 0.00 0.00 75 1017.8
20260507081044 53 111 4.0 9.0 0.00 0.00 0.00 74 1017.6
20260507074017 52 78 3.0 8.0 0.00 0.00 0.00 77 1017.6
20260507070858 51 50 1.0 4.0 0.00 0.00 0.00 84 1017.5
20260507063847 48 50 1.0 4.0 0.00 0.00 0.00 90 1017.4
20260507060933 45 50 0.0 0.0 0.00 0.00 0.00 92 1017.4
20260507054048 39 50 0.0 0.0 0.00 0.00 0.00 91 1017.4
20260507051044 39 50 0.0 0.0 0.00 0.00 0.00 90 1017.3
20260507043940 39 50 0.0 0.0 0.00 0.00 0.00 89 1016.9
20260507040831 41 50 0.0 0.0 0.00 0.00 0.00 88 1016.8
20260507033701 42 50 0.0 0.0 0.00 0.00 0.00 88 1016.8